When you browse on this site, cookies collect data to enhance your experience and personalize the content and advertising you see.
Visit our Privacy Policy to learn more. By continuing to use the site, you agree to this use of cookies and data.
  • En España
  • Lista de países
  • Para 7 días
  • Temperatura del agua
  • Mapa Satelital
  • El tiempo en el mapa
  • Informadores
  • user-avatar
    Iniciar sesión

    Tiempo cada hora Encamp

    Hoy, 23 Julio, Martes

    Tiempo Temperatura Precipitaciones Viento Presión Humedad
    00:00 +18°C° 0 mm 1 mps 629 mmHg 52%
    01:00 +18°C° 0 mm 1 mps 628 mmHg 51%
    02:00 +18°C° 0 mm 1 mps 628 mmHg 51%
    03:00 +18°C° 0 mm 1 mps 628 mmHg 50%
    04:00 +19°C° 0 mm 1 mps 628 mmHg 51%
    05:00 +19°C° 0 mm 1 mps 628 mmHg 52%
    06:00 +20°C° 0 mm 1 mps 629 mmHg 52%
    07:00 +22°C° 0 mm 1 mps 630 mmHg 45%
    08:00 +25°C° 0 mm 1 mps 631 mmHg 37%
    09:00 +28°C° 0 mm 2 mps 631 mmHg 29%
    10:00 +28°C° 0 mm 2 mps 632 mmHg 27%
    11:00 +29°C° 0 mm 2 mps 632 mmHg 26%
    12:00 +30°C° 0 mm 2 mps 632 mmHg 24%
    13:00 +30°C° 0 mm 2 mps 631 mmHg 26%
    14:00 +29°C° 0 mm 2 mps 631 mmHg 28%
    15:00 +29°C° 0 mm 2 mps 631 mmHg 29%
    16:00 +28°C° 0 mm 1 mps 630 mmHg 36%
    17:00 +26°C° 0 mm 1 mps 629 mmHg 43%
    18:00 +25°C° 0 mm 1 mps 629 mmHg 50%
    19:00 +23°C° 0 mm 1 mps 628 mmHg 52%
    20:00 +21°C° 0 mm 1 mps 628 mmHg 55%
    21:00 +19°C° 0 mm 1 mps 627 mmHg 57%
    22:00 +19°C° 0 mm 1 mps 627 mmHg 55%
    23:00 +19°C° 0 mm 1 mps 627 mmHg 53%

    Mañana, 24 Julio, Miércoles

    Tiempo Temperatura Precipitaciones Viento Presión Humedad
    00:00 +18°C° 0 mm 1 mps 627 mmHg 51%
    01:00 +18°C° 0 mm 1 mps 627 mmHg 50%
    02:00 +18°C° 0 mm 1 mps 627 mmHg 49%
    03:00 +18°C° 0 mm 1 mps 627 mmHg 47%
    04:00 +18°C° 0 mm 1 mps 627 mmHg 48%
    05:00 +19°C° 0 mm 1 mps 627 mmHg 48%
    06:00 +20°C° 0 mm 1 mps 627 mmHg 49%
    07:00 +22°C° 0 mm 1 mps 629 mmHg 42%
    08:00 +25°C° 0 mm 1 mps 630 mmHg 36%
    09:00 +28°C° 0 mm 1 mps 631 mmHg 29%
    10:00 +28°C° 0 mm 1 mps 631 mmHg 28%
    11:00 +29°C° 0 mm 2 mps 631 mmHg 26%
    12:00 +30°C° 0 mm 2 mps 631 mmHg 25%
    13:00 +29°C° 0 mm 2 mps 630 mmHg 27%
    14:00 +29°C° 0 mm 2 mps 630 mmHg 28%
    15:00 +29°C° 0 mm 2 mps 629 mmHg 30%
    16:00 +27°C° 0 mm 2 mps 629 mmHg 37%
    17:00 +26°C° 0 mm 1 mps 628 mmHg 45%
    18:00 +25°C° 0 mm 1 mps 628 mmHg 52%
    19:00 +23°C° 0 mm 1 mps 627 mmHg 57%
    20:00 +21°C° 0 mm 1 mps 627 mmHg 61%
    21:00 +19°C° 0 mm 1 mps 626 mmHg 66%
    22:00 +19°C° 0 mm 1 mps 626 mmHg 64%
    23:00 +18°C° 0 mm 1 mps 626 mmHg 62%

    Pasado mañana, 25 Julio, Jueves

    Tiempo Temperatura Precipitaciones Viento Presión Humedad
    00:00 +18°C° 0 mm 1 mps 625 mmHg 59%
    01:00 +18°C° 0 mm 1 mps 625 mmHg 58%
    02:00 +18°C° 0 mm 1 mps 625 mmHg 57%
    03:00 +18°C° 0 mm 1 mps 625 mmHg 55%
    04:00 +18°C° 0 mm 1 mps 625 mmHg 54%
    05:00 +19°C° 0 mm 1 mps 626 mmHg 53%
    06:00 +19°C° 0 mm 1 mps 626 mmHg 51%
    07:00 +22°C° 0 mm 1 mps 627 mmHg 44%
    08:00 +25°C° 0 mm 2 mps 628 mmHg 36%
    09:00 +27°C° 0 mm 2 mps 629 mmHg 29%
    10:00 +28°C° 0 mm 2 mps 629 mmHg 28%
    11:00 +29°C° 0 mm 2 mps 629 mmHg 27%
    12:00 +30°C° 0 mm 2 mps 629 mmHg 26%
    13:00 +29°C° 0 mm 2 mps 629 mmHg 28%
    14:00 +29°C° 0 mm 2 mps 628 mmHg 29%
    15:00 +28°C° 0 mm 2 mps 628 mmHg 31%
    16:00 +27°C° 0 mm 2 mps 627 mmHg 38%
    17:00 +26°C° 0 mm 2 mps 627 mmHg 44%
    18:00 +25°C° 0 mm 2 mps 626 mmHg 51%
    19:00 +21°C° 0 mm 2 mps 626 mmHg 55%
    20:00 +20°C° 0 mm 1 mps 625 mmHg 60%
    21:00 +18°C° 0 mm 1 mps 625 mmHg 64%
    22:00 +18°C° 0 mm 1 mps 625 mmHg 64%
    23:00 +18°C° 0 mm 1 mps 624 mmHg 63%

    26 Julio, Viernes

    Tiempo Temperatura Precipitaciones Viento Presión Humedad
    00:00 +18°C° 0 mm 1 mps 624 mmHg 62%
    01:00 +16°C° 0 mm 1 mps 624 mmHg 63%
    02:00 +16°C° 0 mm 1 mps 624 mmHg 63%
    03:00 +16°C° 0 mm 1 mps 624 mmHg 64%
    04:00 +16°C° 0 mm 1 mps 624 mmHg 63%
    05:00 +18°C° 0 mm 1 mps 624 mmHg 61%
    06:00 +18°C° 0 mm 1 mps 624 mmHg 59%
    07:00 +20°C° 0 mm 1 mps 625 mmHg 53%
    08:00 +23°C° 0 mm 1 mps 626 mmHg 46%
    09:00 +25°C° 0 mm 2 mps 627 mmHg 39%
    10:00 +25°C° 0 mm 2 mps 626 mmHg 38%
    11:00 +26°C° 0 mm 2 mps 626 mmHg 38%
    12:00 +26°C° 0 mm 3 mps 626 mmHg 37%
    13:00 +25°C° 0.2 mm 3 mps 626 mmHg 42%
    14:00 +24°C° 0.2 mm 3 mps 625 mmHg 48%
    15:00 +22°C° 0.2 mm 3 mps 624 mmHg 53%
    16:00 +21°C° 0.7 mm 3 mps 624 mmHg 60%
    17:00 +20°C° 0.7 mm 2 mps 623 mmHg 66%
    18:00 +18°C° 0.7 mm 2 mps 623 mmHg 73%
    19:00 +18°C° 1.5 mm 1 mps 622 mmHg 77%
    20:00 +16°C° 1.5 mm 1 mps 622 mmHg 82%
    21:00 +14°C° 1.5 mm 1 mps 622 mmHg 87%
    22:00 +14°C° 0.2 mm 1 mps 621 mmHg 89%
    23:00 +13°C° 0.2 mm 1 mps 621 mmHg 90%

    27 Julio, Sábado

    Tiempo Temperatura Precipitaciones Viento Presión Humedad
    00:00 +13°C° 0.2 mm 1 mps 621 mmHg 92%
    01:00 +12°C° 0.2 mm 1 mps 621 mmHg 93%
    02:00 +12°C° 0.2 mm 2 mps 620 mmHg 94%
    03:00 +12°C° 0.2 mm 2 mps 620 mmHg 95%
    04:00 +12°C° 0.5 mm 2 mps 620 mmHg 94%
    05:00 +12°C° 0.5 mm 2 mps 620 mmHg 94%
    06:00 +13°C° 0.5 mm 2 mps 620 mmHg 93%
    07:00 +13°C° 0.6 mm 2 mps 621 mmHg 91%
    08:00 +14°C° 0.6 mm 2 mps 621 mmHg 88%
    09:00 +14°C° 0.6 mm 2 mps 621 mmHg 85%
    10:00 +14°C° 0.8 mm 2 mps 621 mmHg 84%
    11:00 +15°C° 0.8 mm 2 mps 621 mmHg 83%
    12:00 +15°C° 0.8 mm 2 mps 621 mmHg 82%
    13:00 +15°C° 0.8 mm 2 mps 621 mmHg 81%
    14:00 +15°C° 0.8 mm 2 mps 621 mmHg 80%
    15:00 +15°C° 0.8 mm 2 mps 620 mmHg 80%
    16:00 +14°C° 0.4 mm 2 mps 620 mmHg 82%
    17:00 +13°C° 0.4 mm 2 mps 620 mmHg 84%
    18:00 +12°C° 0.4 mm 2 mps 619 mmHg 87%
    19:00 +10°C° 0 mm 2 mps 620 mmHg 88%
    20:00 +9°C° 0 mm 2 mps 620 mmHg 89%
    21:00 +8°C° 0 mm 2 mps 620 mmHg 90%
    22:00 +8°C° 0 mm 2 mps 620 mmHg 90%
    23:00 +7°C° 0 mm 2 mps 620 mmHg 91%

    28 Julio, Domingo

    Tiempo Temperatura Precipitaciones Viento Presión Humedad
    00:00 +6°C° 0 mm 2 mps 619 mmHg 91%
    01:00 +6°C° 0 mm 2 mps 619 mmHg 92%
    02:00 +6°C° 0 mm 2 mps 619 mmHg 92%
    03:00 +5°C° 0 mm 2 mps 619 mmHg 92%
    04:00 +6°C° 0 mm 2 mps 619 mmHg 90%
    05:00 +6°C° 0 mm 2 mps 620 mmHg 88%
    06:00 +7°C° 0 mm 2 mps 620 mmHg 86%
    07:00 +9°C° 0 mm 2 mps 621 mmHg 76%
    08:00 +12°C° 0 mm 2 mps 622 mmHg 66%
    09:00 +14°C° 0 mm 2 mps 623 mmHg 56%
    10:00 +15°C° 0 mm 2 mps 623 mmHg 49%
    11:00 +16°C° 0 mm 2 mps 624 mmHg 43%
    12:00 +18°C° 0 mm 2 mps 624 mmHg 36%
    13:00 +18°C° 0 mm 2 mps 624 mmHg 37%
    14:00 +18°C° 0 mm 2 mps 624 mmHg 38%
    15:00 +18°C° 0 mm 2 mps 624 mmHg 40%
    16:00 +17°C° 0 mm 2 mps 624 mmHg 49%
    17:00 +16°C° 0 mm 2 mps 623 mmHg 59%
    18:00 +14°C° 0 mm 2 mps 623 mmHg 68%
    19:00 +12°C° 0 mm 2 mps 622 mmHg 76%
    20:00 +10°C° 0 mm 2 mps 622 mmHg 84%
    21:00 +8°C° 0 mm 2 mps 622 mmHg 92%
    22:00 +9°C° 0 mm 1 mps 622 mmHg 92%
    23:00 +9°C° 0 mm 1 mps 622 mmHg 91%
    Mostrar más